GLO2623 SBSP-SBFI

Flight info

Callsign GLO2623
Flight time 1h 23m
Altitude 36000
Route ASETA UZ152 UPORU
Aircraft B738/M-SDE2E3FGHIRWXY/LB1

Departure

Time 2026-04-22 17:46
Airport Congonhas–Deputado Freitas Nobre Airport (SBSP)

Arrival

Time 2026-04-22 19:10
Airport Cataratas International Airport (SBFI)
Time Latitude Longitude Altitude Speed Heading
2026-04-22 17:32 -23.62754 -46.65803 2615 ft 0 kts 239°
2026-04-22 17:37 -23.62751 -46.65797 2615 ft 2 kts 239°
2026-04-22 17:38 -23.62743 -46.65783 2615 ft 2 kts 239°
2026-04-22 17:38 -23.62734 -46.65767 2615 ft 2 kts 238°
2026-04-22 17:38 -23.62725 -46.65753 2614 ft 2 kts 223°
2026-04-22 17:38 -23.62711 -46.65743 2614 ft 2 kts 182°
2026-04-22 17:39 -23.62700 -46.65744 2614 ft 1 kts 157°
2026-04-22 17:39 -23.62698 -46.65745 2614 ft 0 kts 156°
2026-04-22 17:41 -23.62701 -46.65735 2614 ft 2 kts 105°
2026-04-22 17:41 -23.62714 -46.65733 2614 ft 2 kts 199°
2026-04-22 17:41 -23.62716 -46.65747 2614 ft 2 kts 289°
2026-04-22 17:41 -23.62699 -46.65753 2614 ft 4 kts 349°
2026-04-22 17:42 -23.62650 -46.65765 2613 ft 10 kts 341°
2026-04-22 17:42 -23.62577 -46.65810 2611 ft 13 kts 326°
2026-04-22 17:42 -23.62493 -46.65872 2609 ft 16 kts 326°
2026-04-22 17:42 -23.62393 -46.65942 2605 ft 18 kts 328°
2026-04-22 17:43 -23.62279 -46.66019 2602 ft 20 kts 328°
2026-04-22 17:43 -23.62153 -46.66098 2592 ft 19 kts 327°
2026-04-22 17:43 -23.62126 -46.66117 2594 ft 0 kts 328°
2026-04-22 17:44 -23.62125 -46.66118 2594 ft 1 kts 328°
2026-04-22 17:44 -23.62111 -46.66126 2594 ft 3 kts 334°
2026-04-22 17:44 -23.62078 -46.66137 2591 ft 7 kts 356°
2026-04-22 17:45 -23.62041 -46.66101 2590 ft 9 kts 83°
2026-04-22 17:45 -23.62082 -46.66049 2597 ft 9 kts 146°
2026-04-22 17:45 -23.62103 -46.66034 2594 ft 0 kts 147°
2026-04-22 17:45 -23.62106 -46.66032 2594 ft 8 kts 147°
2026-04-22 17:46 -23.62396 -46.65832 2607 ft 90 kts 148°
2026-04-22 17:46 -23.63143 -46.65326 2640 ft 158 kts 148°
2026-04-22 17:46 -23.64103 -46.64652 3412 ft 163 kts 147°
2026-04-22 17:46 -23.65030 -46.63976 4345 ft 165 kts 155°
2026-04-22 17:47 -23.66212 -46.63871 4776 ft 192 kts 199°
2026-04-22 17:47 -23.67307 -46.64805 5409 ft 204 kts 228°
2026-04-22 17:47 -23.68289 -46.65910 5775 ft 206 kts 224°
2026-04-22 17:47 -23.69349 -46.66969 5979 ft 207 kts 226°
2026-04-22 17:48 -23.69932 -46.67805 5978 ft 207 kts 245°
2026-04-22 17:48 -23.70275 -46.70050 6026 ft 249 kts 265°
2026-04-22 17:48 -23.70445 -46.71940 6004 ft 251 kts 262°
2026-04-22 17:48 -23.70782 -46.73791 5991 ft 252 kts 257°
2026-04-22 17:49 -23.71235 -46.75665 5993 ft 253 kts 255°
2026-04-22 17:49 -23.71709 -46.77499 5981 ft 256 kts 254°
2026-04-22 17:49 -23.72220 -46.79441 5963 ft 273 kts 254°
2026-04-22 17:49 -23.72745 -46.81442 5975 ft 276 kts 254°
2026-04-22 17:50 -23.73276 -46.83467 6222 ft 279 kts 254°
2026-04-22 17:50 -23.73809 -46.85503 7251 ft 278 kts 254°
2026-04-22 17:50 -23.74341 -46.87536 8256 ft 281 kts 253°
2026-04-22 17:50 -23.74852 -46.89615 8712 ft 283 kts 258°
2026-04-22 17:51 -23.74858 -46.91761 9044 ft 289 kts 283°
2026-04-22 17:51 -23.74069 -46.93788 9095 ft 293 kts 297°
2026-04-22 17:51 -23.73121 -46.95733 9104 ft 294 kts 296°
2026-04-22 17:51 -23.72253 -46.97745 9087 ft 293 kts 293°
2026-04-22 17:52 -23.71448 -46.99780 9092 ft 293 kts 292°
2026-04-22 17:52 -23.70650 -47.01844 9081 ft 293 kts 291°
2026-04-22 17:52 -23.69861 -47.03891 9085 ft 294 kts 291°
2026-04-22 17:52 -23.69065 -47.05951 9078 ft 295 kts 292°
2026-04-22 17:53 -23.68267 -47.08013 9081 ft 295 kts 291°
2026-04-22 17:53 -23.67470 -47.10075 9076 ft 296 kts 292°
2026-04-22 17:53 -23.66672 -47.12134 9077 ft 294 kts 292°
2026-04-22 17:53 -23.65885 -47.14168 9085 ft 294 kts 292°
2026-04-22 17:54 -23.65092 -47.16217 9078 ft 294 kts 292°
2026-04-22 17:54 -23.64294 -47.18278 9082 ft 295 kts 292°
2026-04-22 17:54 -23.63492 -47.20342 9065 ft 296 kts 292°
2026-04-22 17:54 -23.62689 -47.22405 9070 ft 295 kts 292°
2026-04-22 17:55 -23.62159 -47.23776 9058 ft 296 kts 291°
2026-04-22 17:55 -23.61074 -47.26563 9791 ft 300 kts 292°
2026-04-22 17:55 -23.60252 -47.28676 10035 ft 303 kts 291°
2026-04-22 17:55 -23.59435 -47.30781 10046 ft 301 kts 292°
2026-04-22 17:56 -23.58631 -47.32854 10080 ft 307 kts 291°
2026-04-22 17:56 -23.57751 -47.35120 10098 ft 342 kts 292°
2026-04-22 17:56 -23.56805 -47.37556 10103 ft 351 kts 292°
2026-04-22 17:56 -23.55847 -47.40011 10073 ft 351 kts 292°
2026-04-22 17:57 -23.54891 -47.42468 10049 ft 353 kts 292°
2026-04-22 17:57 -23.53934 -47.44922 10052 ft 353 kts 292°
2026-04-22 17:57 -23.52976 -47.47376 10051 ft 352 kts 292°
2026-04-22 17:57 -23.52095 -47.49870 10128 ft 357 kts 287°
2026-04-22 17:58 -23.51379 -47.52429 10639 ft 361 kts 285°
2026-04-22 17:58 -23.50679 -47.55054 10947 ft 363 kts 285°
2026-04-22 17:58 -23.49972 -47.57685 11953 ft 359 kts 285°
2026-04-22 17:58 -23.49255 -47.60292 12867 ft 361 kts 285°
2026-04-22 17:59 -23.48522 -47.62918 13671 ft 365 kts 285°
2026-04-22 17:59 -23.47771 -47.65583 14389 ft 370 kts 285°
2026-04-22 17:59 -23.47014 -47.68264 14828 ft 370 kts 285°
2026-04-22 17:59 -23.46258 -47.70943 15059 ft 371 kts 285°
2026-04-22 18:00 -23.45756 -47.72725 15041 ft 376 kts 285°
2026-04-22 18:00 -23.44724 -47.76368 15060 ft 374 kts 287°
2026-04-22 18:00 -23.43727 -47.78971 15409 ft 381 kts 295°
2026-04-22 18:00 -23.42485 -47.81520 16173 ft 382 kts 297°
2026-04-22 18:01 -23.41186 -47.84048 16937 ft 384 kts 297°
2026-04-22 18:01 -23.39883 -47.86598 17588 ft 388 kts 297°
2026-04-22 18:01 -23.38579 -47.89193 18229 ft 392 kts 296°
2026-04-22 18:01 -23.37280 -47.91817 18789 ft 396 kts 296°
2026-04-22 18:02 -23.35999 -47.94427 19370 ft 397 kts 296°
2026-04-22 18:02 -23.34693 -47.97090 19951 ft 399 kts 296°
2026-04-22 18:02 -23.33384 -47.99762 20492 ft 402 kts 296°
2026-04-22 18:02 -23.32065 -48.02452 21014 ft 405 kts 296°
2026-04-22 18:03 -23.30731 -48.05166 21539 ft 408 kts 295°
2026-04-22 18:03 -23.29431 -48.07901 22044 ft 409 kts 291°
2026-04-22 18:03 -23.28685 -48.10874 22478 ft 407 kts 271°
2026-04-22 18:03 -23.28985 -48.13904 22988 ft 405 kts 255°
2026-04-22 18:04 -23.29623 -48.16894 23516 ft 406 kts 257°
2026-04-22 18:04 -23.30132 -48.19922 23887 ft 410 kts 259°
2026-04-22 18:04 -23.30583 -48.22999 24239 ft 413 kts 260°
2026-04-22 18:04 -23.31012 -48.26055 24591 ft 415 kts 260°
2026-04-22 18:05 -23.31452 -48.29163 24960 ft 417 kts 260°
2026-04-22 18:05 -23.31904 -48.32293 25321 ft 419 kts 260°
2026-04-22 18:05 -23.32362 -48.35426 25676 ft 421 kts 260°
2026-04-22 18:05 -23.32822 -48.38580 26031 ft 423 kts 260°
2026-04-22 18:06 -23.33399 -48.41718 26338 ft 425 kts 254°
2026-04-22 18:06 -23.34408 -48.44744 26653 ft 426 kts 247°
2026-04-22 18:06 -23.35530 -48.47688 26990 ft 428 kts 247°
2026-04-22 18:06 -23.36663 -48.50689 27299 ft 430 kts 248°
2026-04-22 18:07 -23.37792 -48.53701 27595 ft 432 kts 248°
2026-04-22 18:07 -23.38925 -48.56745 27906 ft 434 kts 248°
2026-04-22 18:07 -23.40060 -48.59806 28202 ft 436 kts 248°
2026-04-22 18:07 -23.41196 -48.62878 28508 ft 438 kts 248°
2026-04-22 18:08 -23.42330 -48.65946 28794 ft 440 kts 248°
2026-04-22 18:08 -23.43476 -48.69051 29068 ft 442 kts 248°
2026-04-22 18:08 -23.44627 -48.72173 29333 ft 444 kts 248°
2026-04-22 18:08 -23.45765 -48.75258 29600 ft 446 kts 248°
2026-04-22 18:09 -23.46922 -48.78397 29941 ft 446 kts 248°
2026-04-22 18:09 -23.48076 -48.81531 30332 ft 444 kts 248°
2026-04-22 18:09 -23.49220 -48.84639 30734 ft 442 kts 248°
2026-04-22 18:09 -23.50347 -48.87704 31138 ft 440 kts 248°
2026-04-22 18:10 -23.51498 -48.90834 31510 ft 439 kts 248°
2026-04-22 18:10 -23.52631 -48.93919 31906 ft 438 kts 248°
2026-04-22 18:10 -23.53759 -48.96993 32325 ft 436 kts 248°
2026-04-22 18:10 -23.54866 -49.00012 32764 ft 434 kts 248°
2026-04-22 18:11 -23.55982 -49.03055 33201 ft 432 kts 248°
2026-04-22 18:11 -23.57097 -49.06101 33649 ft 431 kts 248°
2026-04-22 18:11 -23.58203 -49.09122 34090 ft 429 kts 248°
2026-04-22 18:11 -23.59309 -49.12144 34466 ft 427 kts 248°
2026-04-22 18:12 -23.60407 -49.15149 34800 ft 426 kts 248°
2026-04-22 18:12 -23.61502 -49.18149 35125 ft 425 kts 248°
2026-04-22 18:12 -23.62224 -49.20125 35358 ft 424 kts 248°
2026-04-22 18:12 -23.63665 -49.24077 35841 ft 421 kts 248°
2026-04-22 18:13 -23.64748 -49.27048 36057 ft 423 kts 248°
2026-04-22 18:13 -23.66933 -49.33051 36050 ft 426 kts 248°
2026-04-22 18:14 -23.69105 -49.39027 36047 ft 420 kts 249°
2026-04-22 18:14 -23.71252 -49.44942 36065 ft 418 kts 249°
2026-04-22 18:15 -23.73393 -49.50847 36058 ft 418 kts 249°
2026-04-22 18:15 -23.75514 -49.56711 36061 ft 419 kts 249°
2026-04-22 18:16 -23.77646 -49.62623 36062 ft 418 kts 249°
2026-04-22 18:16 -23.79778 -49.68540 36061 ft 419 kts 249°
2026-04-22 18:17 -23.81907 -49.74459 36061 ft 419 kts 249°
2026-04-22 18:17 -23.84020 -49.80342 36060 ft 419 kts 249°
2026-04-22 18:18 -23.86150 -49.86281 36063 ft 420 kts 249°
2026-04-22 18:18 -23.88278 -49.92219 36062 ft 420 kts 249°
2026-04-22 18:19 -23.90403 -49.98162 36060 ft 420 kts 249°
2026-04-22 18:19 -23.92525 -50.04111 36067 ft 420 kts 249°
2026-04-22 18:20 -23.94630 -50.10022 36060 ft 420 kts 249°
2026-04-22 18:20 -23.96748 -50.15975 36060 ft 420 kts 249°
2026-04-22 18:21 -23.98861 -50.21921 36066 ft 420 kts 249°
2026-04-22 18:21 -24.00975 -50.27879 36065 ft 420 kts 249°
2026-04-22 18:22 -24.03078 -50.33836 36062 ft 420 kts 249°
2026-04-22 18:22 -24.05162 -50.39749 36068 ft 419 kts 249°
2026-04-22 18:23 -24.07258 -50.45699 36066 ft 419 kts 249°
2026-04-22 18:23 -24.09349 -50.51643 36066 ft 419 kts 250°
2026-04-22 18:24 -24.12489 -50.60574 36068 ft 418 kts 250°
2026-04-22 18:25 -24.15602 -50.69453 36064 ft 418 kts 250°
2026-04-22 18:25 -24.17681 -50.75392 36065 ft 418 kts 250°
2026-04-22 18:26 -24.20794 -50.84304 36072 ft 417 kts 250°
2026-04-22 18:26 -24.22850 -50.90199 36064 ft 417 kts 250°
2026-04-22 18:27 -24.24919 -50.96141 36067 ft 417 kts 250°
2026-04-22 18:27 -24.26986 -51.02080 36069 ft 417 kts 250°
2026-04-22 18:28 -24.29050 -51.08027 36059 ft 417 kts 250°
2026-04-22 18:28 -24.31096 -51.13941 36058 ft 417 kts 250°
2026-04-22 18:29 -24.33150 -51.19890 36056 ft 417 kts 250°
2026-04-22 18:29 -24.35201 -51.25839 36057 ft 417 kts 250°
2026-04-22 18:30 -24.38276 -51.34773 36059 ft 417 kts 250°
2026-04-22 18:31 -24.40323 -51.40729 36055 ft 417 kts 250°
2026-04-22 18:31 -24.42355 -51.46654 36055 ft 418 kts 251°
2026-04-22 18:32 -24.44398 -51.52616 36061 ft 418 kts 251°
2026-04-22 18:32 -24.46439 -51.58582 36063 ft 418 kts 251°
2026-04-22 18:33 -24.48479 -51.64555 36058 ft 418 kts 251°
2026-04-22 18:33 -24.50502 -51.70487 36064 ft 418 kts 251°
2026-04-22 18:34 -24.52540 -51.76473 36062 ft 418 kts 251°
2026-04-22 18:34 -24.54579 -51.82467 36062 ft 419 kts 251°
2026-04-22 18:35 -24.56614 -51.88459 36064 ft 419 kts 251°
2026-04-22 18:35 -24.58628 -51.94412 36060 ft 419 kts 251°
2026-04-22 18:36 -24.60655 -52.00416 36065 ft 419 kts 251°
2026-04-22 18:36 -24.62674 -52.06405 36053 ft 419 kts 251°
2026-04-22 18:37 -24.64698 -52.12421 36058 ft 419 kts 251°
2026-04-22 18:37 -24.66373 -52.17403 36057 ft 419 kts 251°
2026-04-22 18:38 -24.68720 -52.24394 36052 ft 419 kts 251°
2026-04-22 18:38 -24.70734 -52.30407 36058 ft 418 kts 251°
2026-04-22 18:39 -24.73747 -52.39412 36060 ft 418 kts 251°
2026-04-22 18:39 -24.75750 -52.45415 36049 ft 418 kts 251°
2026-04-22 18:40 -24.77739 -52.51380 36052 ft 418 kts 252°
2026-04-22 18:40 -24.79735 -52.57379 36047 ft 418 kts 252°
2026-04-22 18:41 -24.81730 -52.63383 36053 ft 417 kts 252°
2026-04-22 18:41 -24.83723 -52.69388 36057 ft 417 kts 252°
2026-04-22 18:42 -24.85708 -52.75391 36056 ft 417 kts 252°
2026-04-22 18:42 -24.87677 -52.81361 36053 ft 418 kts 252°
2026-04-22 18:43 -24.89658 -52.87373 36054 ft 418 kts 252°
2026-04-22 18:43 -24.91640 -52.93397 35956 ft 420 kts 252°
2026-04-22 18:44 -24.92641 -52.96447 35314 ft 426 kts 252°
2026-04-22 18:44 -24.93651 -52.99523 34647 ft 426 kts 252°
2026-04-22 18:44 -24.94645 -53.02553 33968 ft 427 kts 252°
2026-04-22 18:44 -24.95648 -53.05611 33392 ft 422 kts 252°
2026-04-22 18:45 -24.96639 -53.08632 32812 ft 419 kts 252°
2026-04-22 18:45 -24.97627 -53.11649 32286 ft 415 kts 252°
2026-04-22 18:45 -24.98602 -53.14630 31779 ft 412 kts 252°
2026-04-22 18:45 -24.99569 -53.17589 31265 ft 409 kts 252°
2026-04-22 18:46 -25.00527 -53.20523 30774 ft 406 kts 252°
2026-04-22 18:46 -25.01479 -53.23439 30252 ft 404 kts 252°
2026-04-22 18:46 -25.02427 -53.26350 29639 ft 402 kts 252°
2026-04-22 18:46 -25.03359 -53.29210 29088 ft 399 kts 252°
2026-04-22 18:47 -25.04294 -53.32083 28537 ft 396 kts 252°
2026-04-22 18:47 -25.05220 -53.34926 28014 ft 393 kts 252°
2026-04-22 18:47 -25.06140 -53.37757 27489 ft 390 kts 251°
2026-04-22 18:47 -25.07052 -53.40564 26974 ft 388 kts 251°
2026-04-22 18:48 -25.07956 -53.43351 26452 ft 386 kts 251°
2026-04-22 18:48 -25.08860 -53.46136 25939 ft 384 kts 251°
2026-04-22 18:48 -25.09756 -53.48901 25411 ft 382 kts 251°
2026-04-22 18:48 -25.10645 -53.51647 24883 ft 381 kts 251°
2026-04-22 18:49 -25.11537 -53.54402 24348 ft 380 kts 251°
2026-04-22 18:49 -25.12413 -53.57111 23820 ft 379 kts 251°
2026-04-22 18:49 -25.13297 -53.59847 23215 ft 378 kts 251°
2026-04-22 18:49 -25.14176 -53.62565 22654 ft 375 kts 251°
2026-04-22 18:50 -25.15049 -53.65269 22111 ft 371 kts 251°
2026-04-22 18:50 -25.15906 -53.67929 21742 ft 364 kts 251°
2026-04-22 18:50 -25.16743 -53.70533 21396 ft 356 kts 251°
2026-04-22 18:50 -25.17567 -53.73099 20878 ft 355 kts 251°
2026-04-22 18:51 -25.18391 -53.75671 20309 ft 355 kts 251°
2026-04-22 18:51 -25.19213 -53.78234 19786 ft 354 kts 251°
2026-04-22 18:51 -25.20023 -53.80760 19296 ft 353 kts 251°
2026-04-22 18:51 -25.20840 -53.83308 18805 ft 351 kts 251°
2026-04-22 18:52 -25.21653 -53.85848 18322 ft 350 kts 251°
2026-04-22 18:52 -25.22450 -53.88377 17823 ft 348 kts 252°
2026-04-22 18:52 -25.23113 -53.90936 17328 ft 345 kts 255°
2026-04-22 18:52 -25.23700 -53.93500 16866 ft 343 kts 256°
2026-04-22 18:53 -25.24264 -53.96044 16378 ft 340 kts 256°
2026-04-22 18:53 -25.24818 -53.98545 15934 ft 338 kts 256°
2026-04-22 18:53 -25.25379 -54.01049 15480 ft 336 kts 256°
2026-04-22 18:53 -25.25944 -54.03551 15030 ft 334 kts 256°
2026-04-22 18:54 -25.26508 -54.06038 14554 ft 333 kts 256°
2026-04-22 18:54 -25.27072 -54.08517 14074 ft 333 kts 256°
2026-04-22 18:54 -25.27635 -54.10986 13625 ft 331 kts 256°
2026-04-22 18:54 -25.28195 -54.13441 13181 ft 328 kts 256°
2026-04-22 18:55 -25.28749 -54.15873 12745 ft 324 kts 256°
2026-04-22 18:55 -25.29291 -54.18245 12322 ft 321 kts 256°
2026-04-22 18:55 -25.29834 -54.20627 11882 ft 319 kts 256°
2026-04-22 18:55 -25.30373 -54.22995 11471 ft 316 kts 256°
2026-04-22 18:56 -25.30899 -54.25308 11326 ft 304 kts 256°
2026-04-22 18:56 -25.31404 -54.27527 11238 ft 292 kts 256°
2026-04-22 18:56 -25.31891 -54.29666 11079 ft 283 kts 256°
2026-04-22 18:56 -25.32367 -54.31759 10747 ft 281 kts 256°
2026-04-22 18:57 -25.32817 -54.33850 10411 ft 279 kts 261°
2026-04-22 18:57 -25.32802 -54.35983 10077 ft 278 kts 281°
2026-04-22 18:57 -25.32117 -54.37960 9789 ft 276 kts 301°
2026-04-22 18:57 -25.30877 -54.39529 9404 ft 276 kts 321°
2026-04-22 18:58 -25.29215 -54.40579 9080 ft 275 kts 335°
2026-04-22 18:58 -25.27376 -54.41126 8703 ft 276 kts 355°
2026-04-22 18:58 -25.25471 -54.40909 8400 ft 276 kts 17°
2026-04-22 18:58 -25.23829 -54.39841 8132 ft 274 kts 44°
2026-04-22 18:59 -25.22798 -54.38093 7893 ft 275 kts 68°
2026-04-22 18:59 -25.22432 -54.36029 7656 ft 278 kts 92°
2026-04-22 18:59 -25.22936 -54.33979 7419 ft 279 kts 120°
2026-04-22 18:59 -25.24193 -54.32410 7194 ft 278 kts 146°
2026-04-22 19:00 -25.25932 -54.31528 6967 ft 275 kts 166°
2026-04-22 19:00 -25.27800 -54.31096 6747 ft 274 kts 171°
2026-04-22 19:00 -25.29681 -54.30740 6511 ft 274 kts 173°
2026-04-22 19:00 -25.31558 -54.30851 6232 ft 272 kts 201°
2026-04-22 19:01 -25.33064 -54.32023 5989 ft 266 kts 235°
2026-04-22 19:01 -25.33717 -54.33887 5781 ft 260 kts 264°
2026-04-22 19:01 -25.33884 -54.35873 5552 ft 260 kts 266°
2026-04-22 19:01 -25.34067 -54.37858 5335 ft 260 kts 264°
2026-04-22 19:02 -25.34340 -54.39814 5094 ft 262 kts 261°
2026-04-22 19:02 -25.34698 -54.41797 4819 ft 263 kts 259°
2026-04-22 19:02 -25.35103 -54.43770 4567 ft 264 kts 258°
2026-04-22 19:02 -25.35529 -54.45738 4337 ft 262 kts 257°
2026-04-22 19:03 -25.35964 -54.47689 4126 ft 260 kts 257°
2026-04-22 19:03 -25.36401 -54.49625 4046 ft 259 kts 257°
2026-04-22 19:03 -25.36838 -54.51554 4030 ft 259 kts 257°
2026-04-22 19:03 -25.37272 -54.53481 4025 ft 258 kts 257°
2026-04-22 19:04 -25.37704 -54.55401 4031 ft 258 kts 257°
2026-04-22 19:04 -25.38137 -54.57325 4033 ft 258 kts 257°
2026-04-22 19:04 -25.38738 -54.59167 4012 ft 260 kts 239°
2026-04-22 19:04 -25.40042 -54.60502 3880 ft 259 kts 206°
2026-04-22 19:05 -25.41716 -54.61119 3758 ft 250 kts 196°
2026-04-22 19:05 -25.43371 -54.61667 3552 ft 245 kts 198°
2026-04-22 19:05 -25.44945 -54.62269 3357 ft 233 kts 200°
2026-04-22 19:05 -25.46428 -54.62859 3200 ft 221 kts 197°
2026-04-22 19:06 -25.47888 -54.63078 3044 ft 205 kts 173°
2026-04-22 19:06 -25.49105 -54.62449 2900 ft 188 kts 131°
2026-04-22 19:06 -25.49858 -54.61336 2855 ft 180 kts 128°
2026-04-22 19:07 -25.51403 -54.59283 2628 ft 170 kts 131°
2026-04-22 19:07 -25.52153 -54.58315 2503 ft 160 kts 130°
2026-04-22 19:07 -25.52852 -54.57414 2393 ft 152 kts 131°
2026-04-22 19:07 -25.53526 -54.56543 2207 ft 146 kts 131°
2026-04-22 19:08 -25.54183 -54.55695 2026 ft 145 kts 131°
2026-04-22 19:08 -25.54844 -54.54842 1839 ft 146 kts 131°
2026-04-22 19:08 -25.55492 -54.53993 1661 ft 147 kts 131°
2026-04-22 19:08 -25.56119 -54.53162 1581 ft 135 kts 129°
2026-04-22 19:09 -25.56710 -54.52355 1356 ft 135 kts 131°
2026-04-22 19:09 -25.57318 -54.51561 1145 ft 138 kts 132°
2026-04-22 19:09 -25.57741 -54.51014 987 ft 141 kts 133°
2026-04-22 19:09 -25.58592 -54.49986 851 ft 130 kts 130°
2026-04-22 19:10 -25.59164 -54.49272 775 ft 115 kts 129°
2026-04-22 19:10 -25.59555 -54.48767 782 ft 42 kts 130°
2026-04-22 19:10 -25.59662 -54.48682 784 ft 6 kts 198°
2026-04-22 19:10 -25.59686 -54.48701 784 ft 0 kts 219°
2026-04-22 19:12 -25.59689 -54.48704 784 ft 2 kts 221°
2026-04-22 19:12 -25.59696 -54.48725 784 ft 4 kts 261°
2026-04-22 19:12 -25.59684 -54.48764 783 ft 6 kts 305°
2026-04-22 19:13 -25.59655 -54.48800 782 ft 6 kts 312°
2026-04-22 19:13 -25.59625 -54.48840 782 ft 7 kts 310°
2026-04-22 19:13 -25.59607 -54.48867 782 ft 4 kts 285°
2026-04-22 19:13 -25.59632 -54.48903 781 ft 4 kts 220°
2026-04-22 19:14 -25.59637 -54.48908 781 ft 0 kts 220°